Time,TemperatureF,DewpointF,PressureIn,WindDirection,WindDirectionDegrees,WindSpeedMPH,WindSpeedGustMPH,Humidity,HourlyPrecipIn,Conditions,Clouds,dailyrainin,SolarRadiationWatts/m^2,SoftwareType,DateUTC
2013-05-12 00:04:00,53.7,35.0,29.99,ESE,110,0.0,0.0,49,0.00,,,0.00,0,Wunderground v.1.15,2013-05-12 06:04:00,
2013-05-12 00:10:00,53.2,35.5,30.00,ESE,110,0.0,0.0,51,0.00,,,0.00,0,Wunderground v.1.15,2013-05-12 06:10:00,
2013-05-12 00:16:00,52.6,35.0,30.00,ESE,104,0.0,2.0,51,0.00,,,0.00,0,Wunderground v.1.15,2013-05-12 06:16:00,
2013-05-12 00:22:00,51.7,34.1,30.00,East,100,0.0,0.0,51,0.00,,,0.00,0,Wunderground v.1.15,2013-05-12 06:22:00,
2013-05-12 00:30:00,50.6,33.6,30.00,ENE,68,1.0,3.0,52,0.00,,,0.00,0,Wunderground v.1.15,2013-05-12 06:30:00,
2013-05-12 00:38:00,49.7,33.7,30.00,ENE,59,2.0,3.0,54,0.00,,,0.00,0,Wunderground v.1.15,2013-05-12 06:38:00,
2013-05-12 00:44:00,49.2,33.7,30.00,NE,53,2.0,4.0,55,0.00,,,0.00,0,Wunderground v.1.15,2013-05-12 06:44:00,
2013-05-12 00:50:00,48.8,33.8,30.00,NE,52,3.0,4.0,56,0.00,,,0.00,0,Wunderground v.1.15,2013-05-12 06:50:00,
2013-05-12 00:56:00,48.4,34.3,30.00,NE,41,3.0,9.0,58,0.00,,,0.00,0,Wunderground v.1.15,2013-05-12 06:56:00,
2013-05-12 01:04:00,47.9,33.4,30.00,NE,42,3.0,5.0,57,0.00,,,0.00,0,Wunderground v.1.15,2013-05-12 07:04:00,
2013-05-12 01:12:00,47.7,33.2,30.00,ENE,60,3.0,4.0,57,0.00,,,0.00,0,Wunderground v.1.15,2013-05-12 07:12:00,
2013-05-12 01:18:00,47.6,33.5,30.00,NE,35,3.0,6.0,58,0.00,,,0.00,0,Wunderground v.1.15,2013-05-12 07:18:00,
2013-05-12 01:24:00,47.5,33.4,30.00,NNE,19,5.0,9.0,58,0.00,,,0.00,0,Wunderground v.1.15,2013-05-12 07:24:00,
2013-05-12 01:30:00,47.5,33.4,30.00,NE,49,6.0,9.0,58,0.00,,,0.00,0,Wunderground v.1.15,2013-05-12 07:30:00,
2013-05-12 01:38:00,47.8,33.7,30.00,ENE,63,4.0,5.0,58,0.00,,,0.00,0,Wunderground v.1.15,2013-05-12 07:38:00,
2013-05-12 01:44:00,48.0,33.9,30.01,NE,51,3.0,4.0,58,0.00,,,0.00,0,Wunderground v.1.15,2013-05-12 07:44:00,
2013-05-12 01:50:00,48.4,34.7,30.00,ENE,65,3.0,5.0,59,0.00,,,0.00,0,Wunderground v.1.15,2013-05-12 07:50:00,
2013-05-12 01:58:00,48.6,34.0,30.00,NE,39,4.0,7.0,57,0.00,,,0.00,0,Wunderground v.1.15,2013-05-12 07:58:00,
2013-05-12 02:04:00,48.7,34.1,30.00,NNE,22,5.0,6.0,57,0.00,,,0.00,0,Wunderground v.1.15,2013-05-12 08:04:00,
2013-05-12 02:10:00,48.8,34.2,30.00,ENE,67,5.0,5.0,57,0.00,,,0.00,0,Wunderground v.1.15,2013-05-12 08:10:00,
2013-05-12 02:16:00,48.6,34.0,30.00,NNE,32,4.0,5.0,57,0.00,,,0.00,0,Wunderground v.1.15,2013-05-12 08:16:00,
2013-05-12 02:22:00,48.5,33.9,29.99,NNE,33,4.0,6.0,57,0.00,,,0.00,0,Wunderground v.1.15,2013-05-12 08:22:00,
2013-05-12 02:28:00,48.4,34.3,29.99,North,5,4.0,6.0,58,0.00,,,0.00,0,Wunderground v.1.15,2013-05-12 08:28:00,
2013-05-12 02:34:00,48.5,34.4,29.99,NE,49,5.0,6.0,58,0.00,,,0.00,0,Wunderground v.1.15,2013-05-12 08:34:00,
2013-05-12 02:40:00,48.7,34.1,29.99,North,5,5.0,5.0,57,0.00,,,0.00,0,Wunderground v.1.15,2013-05-12 08:40:00,
2013-05-12 02:46:00,49.0,34.4,29.99,East,80,5.0,5.0,57,0.00,,,0.00,0,Wunderground v.1.15,2013-05-12 08:46:00,
2013-05-12 02:52:00,49.5,34.4,29.99,NNE,33,4.0,4.0,56,0.00,,,0.00,0,Wunderground v.1.15,2013-05-12 08:52:00,
2013-05-12 02:58:00,49.8,35.6,29.99,NE,34,2.0,4.0,58,0.00,,,0.00,0,Wunderground v.1.15,2013-05-12 08:58:00,
2013-05-12 03:04:00,50.0,34.9,29.99,NE,35,1.0,3.0,56,0.00,,,0.00,0,Wunderground v.1.15,2013-05-12 09:04:00,
2013-05-12 03:10:00,50.1,35.0,29.99,NE,56,2.0,2.0,56,0.00,,,0.00,0,Wunderground v.1.15,2013-05-12 09:10:00,
2013-05-12 03:20:00,49.9,34.8,29.98,NE,47,2.0,3.0,56,0.00,,,0.00,0,Wunderground v.1.15,2013-05-12 09:20:00,
2013-05-12 03:26:00,49.7,34.6,29.98,NNE,32,2.0,4.0,56,0.00,,,0.00,0,Wunderground v.1.15,2013-05-12 09:26:00,
2013-05-12 03:32:00,49.3,34.7,29.98,NE,38,3.0,3.0,57,0.00,,,0.00,0,Wunderground v.1.15,2013-05-12 09:32:00,
2013-05-12 03:38:00,49.0,35.3,29.98,ENE,57,2.0,5.0,59,0.00,,,0.00,0,Wunderground v.1.15,2013-05-12 09:38:00,
2013-05-12 03:44:00,48.4,34.3,29.98,ENE,57,3.0,4.0,58,0.00,,,0.00,0,Wunderground v.1.15,2013-05-12 09:44:00,
2013-05-12 03:52:00,47.6,34.4,29.98,NE,39,4.0,5.0,60,0.00,,,0.00,0,Wunderground v.1.15,2013-05-12 09:52:00,
2013-05-12 03:58:00,47.3,34.5,29.98,NE,38,4.0,5.0,61,0.00,,,0.00,0,Wunderground v.1.15,2013-05-12 09:58:00,
2013-05-12 04:04:00,47.0,34.2,29.98,North,11,4.0,4.0,61,0.00,,,0.00,0,Wunderground v.1.15,2013-05-12 10:04:00,
2013-05-12 04:10:00,46.9,34.6,29.98,NE,56,2.0,3.0,62,0.00,,,0.00,0,Wunderground v.1.15,2013-05-12 10:10:00,
2013-05-12 04:18:00,46.7,34.4,29.98,NE,34,3.0,7.0,62,0.00,,,0.00,0,Wunderground v.1.15,2013-05-12 10:18:00,
2013-05-12 04:26:00,47.0,34.6,29.98,NNE,28,6.0,10.0,62,0.00,,,0.00,0,Wunderground v.1.15,2013-05-12 10:26:00,
2013-05-12 04:32:00,47.2,34.4,29.98,NNE,15,7.0,9.0,61,0.00,,,0.00,0,Wunderground v.1.15,2013-05-12 10:32:00,
2013-05-12 04:38:00,47.4,34.6,29.98,NNE,30,8.0,10.0,61,0.00,,,0.00,0,Wunderground v.1.15,2013-05-12 10:38:00,
2013-05-12 04:44:00,47.5,34.7,29.98,NNE,32,8.0,10.0,61,0.00,,,0.00,0,Wunderground v.1.15,2013-05-12 10:44:00,
2013-05-12 04:50:00,47.5,34.3,29.98,NNE,26,6.0,6.0,60,0.00,,,0.00,0,Wunderground v.1.15,2013-05-12 10:50:00,
2013-05-12 04:58:00,47.5,34.7,29.98,NNE,27,6.0,9.0,61,0.00,,,0.00,0,Wunderground v.1.15,2013-05-12 10:58:00,
2013-05-12 05:04:00,47.5,34.7,29.99,NNE,31,7.0,10.0,61,0.00,,,0.00,0,Wunderground v.1.15,2013-05-12 11:04:00,
2013-05-12 05:12:00,47.5,34.7,29.98,NNE,22,6.0,8.0,61,0.00,,,0.00,0,Wunderground v.1.15,2013-05-12 11:12:00,
2013-05-12 05:18:00,47.5,34.7,29.98,NE,35,7.0,8.0,61,0.00,,,0.00,0,Wunderground v.1.15,2013-05-12 11:18:00,
2013-05-12 05:24:00,47.4,34.6,29.98,NE,36,8.0,8.0,61,0.00,,,0.00,0,Wunderground v.1.15,2013-05-12 11:24:00,
2013-05-12 05:32:00,47.4,34.6,29.98,NE,37,7.0,7.0,61,0.00,,,0.00,0,Wunderground v.1.15,2013-05-12 11:32:00,
2013-05-12 05:40:00,47.3,34.9,29.98,NNE,13,8.0,8.0,62,0.00,,,0.00,0,Wunderground v.1.15,2013-05-12 11:40:00,
2013-05-12 05:48:00,47.3,34.9,29.98,NNE,22,8.0,8.0,62,0.00,,,0.00,0,Wunderground v.1.15,2013-05-12 11:48:00,
2013-05-12 05:54:00,47.3,35.3,29.98,NNE,33,7.0,7.0,63,0.00,,,0.00,0,Wunderground v.1.15,2013-05-12 11:54:00,
2013-05-12 06:00:00,47.3,35.3,29.98,NNE,15,7.0,10.0,63,0.00,,,0.00,5,Wunderground v.1.15,2013-05-12 12:00:00,
2013-05-12 06:06:00,47.3,34.9,29.98,NNE,28,8.0,10.0,62,0.00,,,0.00,5,Wunderground v.1.15,2013-05-12 12:06:00,
2013-05-12 06:12:00,47.4,35.4,29.97,NE,38,8.0,8.0,63,0.00,,,0.00,7,Wunderground v.1.15,2013-05-12 12:12:00,
2013-05-12 06:22:00,47.5,35.1,29.98,ENE,64,6.0,6.0,62,0.00,,,0.00,16,Wunderground v.1.15,2013-05-12 12:22:00,
2013-05-12 06:30:00,47.6,35.6,29.98,ENE,71,6.0,8.0,63,0.00,,,0.00,30,Wunderground v.1.15,2013-05-12 12:30:00,
2013-05-12 06:36:00,47.7,35.7,29.98,North,11,6.0,7.0,63,0.00,,,0.00,37,Wunderground v.1.15,2013-05-12 12:36:00,
2013-05-12 06:46:00,48.5,36.1,29.98,NE,54,5.0,5.0,62,0.00,,,0.00,46,Wunderground v.1.15,2013-05-12 12:46:00,
2013-05-12 06:52:00,48.8,35.9,29.98,NNE,29,5.0,7.0,61,0.00,,,0.00,44,Wunderground v.1.15,2013-05-12 12:52:00,
2013-05-12 06:58:00,49.0,35.7,29.98,NE,56,6.0,7.0,60,0.00,,,0.00,47,Wunderground v.1.15,2013-05-12 12:58:00,
2013-05-12 07:04:00,49.2,35.9,29.98,NE,46,6.0,11.0,60,0.00,,,0.00,49,Wunderground v.1.15,2013-05-12 13:04:00,
2013-05-12 07:10:00,49.5,36.6,29.98,NE,42,7.0,7.0,61,0.00,,,0.00,56,Wunderground v.1.15,2013-05-12 13:10:00,
2013-05-12 07:16:00,50.1,37.6,29.98,NNE,23,6.0,10.0,62,0.00,,,0.00,67,Wunderground v.1.15,2013-05-12 13:16:00,
2013-05-12 07:22:00,50.8,37.0,29.98,ENE,71,6.0,6.0,59,0.00,,,0.00,69,Wunderground v.1.15,2013-05-12 13:22:00,
2013-05-12 07:28:00,51.5,37.6,29.98,NNE,25,5.0,8.0,59,0.00,,,0.00,67,Wunderground v.1.15,2013-05-12 13:28:00,
2013-05-12 07:34:00,52.4,38.0,29.98,NE,55,5.0,6.0,58,0.00,,,0.00,62,Wunderground v.1.15,2013-05-12 13:34:00,
2013-05-12 07:40:00,53.3,38.0,29.98,NNE,26,6.0,8.0,56,0.00,,,0.00,65,Wunderground v.1.15,2013-05-12 13:40:00,
2013-05-12 07:46:00,54.2,38.4,29.98,NNE,32,6.0,7.0,55,0.00,,,0.00,67,Wunderground v.1.15,2013-05-12 13:46:00,
2013-05-12 07:52:00,55.1,38.3,29.97,NNE,28,5.0,5.0,53,0.00,,,0.00,62,Wunderground v.1.15,2013-05-12 13:52:00,
2013-05-12 07:58:00,55.9,38.5,29.97,NNE,23,6.0,6.0,52,0.00,,,0.00,62,Wunderground v.1.15,2013-05-12 13:58:00,
2013-05-12 08:04:00,56.6,39.2,29.98,North,11,5.0,8.0,52,0.00,,,0.00,65,Wunderground v.1.15,2013-05-12 14:04:00,
2013-05-12 08:10:00,57.5,39.0,29.97,NNE,30,5.0,5.0,50,0.00,,,0.00,74,Wunderground v.1.15,2013-05-12 14:10:00,
2013-05-12 08:16:00,58.5,39.9,29.97,NNE,26,5.0,6.0,50,0.00,,,0.00,109,Wunderground v.1.15,2013-05-12 14:16:00,
2013-05-12 08:22:00,59.6,39.9,29.97,NNE,27,6.0,6.0,48,0.00,,,0.00,169,Wunderground v.1.15,2013-05-12 14:22:00,
2013-05-12 08:28:00,60.8,39.9,29.97,North,10,5.0,7.0,46,0.00,,,0.00,257,Wunderground v.1.15,2013-05-12 14:28:00,
2013-05-12 08:34:00,61.8,40.2,29.97,NNE,29,5.0,6.0,45,0.00,,,0.00,341,Wunderground v.1.15,2013-05-12 14:34:00,
2013-05-12 08:40:00,63.0,40.1,29.96,NNE,13,7.0,7.0,43,0.00,,,0.00,397,Wunderground v.1.15,2013-05-12 14:40:00,
2013-05-12 08:46:00,64.0,40.4,29.96,North,360,8.0,12.0,42,0.00,,,0.00,396,Wunderground v.1.15,2013-05-12 14:46:00,
2013-05-12 08:52:00,64.8,40.5,29.96,NNE,17,7.0,8.0,41,0.00,,,0.00,425,Wunderground v.1.15,2013-05-12 14:52:00,
2013-05-12 08:58:00,65.7,40.1,29.96,NNE,17,8.0,11.0,39,0.00,,,0.00,452,Wunderground v.1.15,2013-05-12 14:58:00,
2013-05-12 09:04:00,66.6,40.2,29.96,NNE,24,8.0,11.0,38,0.00,,,0.00,473,Wunderground v.1.15,2013-05-12 15:04:00,
2013-05-12 09:10:00,67.5,40.3,29.96,NNE,24,7.0,7.0,37,0.00,,,0.00,468,Wunderground v.1.15,2013-05-12 15:10:00,
2013-05-12 09:16:00,68.3,40.3,29.96,NNE,28,7.0,9.0,36,0.00,,,0.00,482,Wunderground v.1.15,2013-05-12 15:16:00,
2013-05-12 09:22:00,68.9,40.1,29.96,NNE,29,7.0,10.0,35,0.00,,,0.00,487,Wunderground v.1.15,2013-05-12 15:22:00,
2013-05-12 09:28:00,69.5,40.6,29.95,NNE,27,6.0,10.0,35,0.00,,,0.00,494,Wunderground v.1.15,2013-05-12 15:28:00,
2013-05-12 09:34:00,70.0,39.6,29.95,NE,36,6.0,9.0,33,0.00,,,0.00,510,Wunderground v.1.15,2013-05-12 15:34:00,
2013-05-12 09:40:00,70.2,40.5,29.95,NE,38,6.0,6.0,34,0.00,,,0.00,563,Wunderground v.1.15,2013-05-12 15:40:00,
2013-05-12 09:46:00,70.9,40.3,29.95,NNE,30,6.0,6.0,33,0.00,,,0.00,570,Wunderground v.1.15,2013-05-12 15:46:00,
2013-05-12 09:52:00,71.6,40.2,29.95,NNE,23,6.0,7.0,32,0.00,,,0.00,610,Wunderground v.1.15,2013-05-12 15:52:00,
2013-05-12 09:58:00,72.1,40.6,29.95,NE,42,6.0,8.0,32,0.00,,,0.00,599,Wunderground v.1.15,2013-05-12 15:58:00,
2013-05-12 10:04:00,72.6,41.0,29.94,NNE,22,5.0,10.0,32,0.00,,,0.00,592,Wunderground v.1.15,2013-05-12 16:04:00,
2013-05-12 10:12:00,73.4,40.9,29.94,North,5,6.0,10.0,31,0.00,,,0.00,619,Wunderground v.1.15,2013-05-12 16:12:00,
2013-05-12 10:18:00,73.9,40.5,29.94,NNE,18,6.0,10.0,30,0.00,,,0.00,649,Wunderground v.1.15,2013-05-12 16:18:00,
2013-05-12 10:24:00,74.4,40.9,29.94,NNE,15,7.0,12.0,30,0.00,,,0.00,679,Wunderground v.1.15,2013-05-12 16:24:00,
2013-05-12 10:30:00,74.8,41.3,29.93,NNE,24,7.0,12.0,30,0.00,,,0.00,705,Wunderground v.1.15,2013-05-12 16:30:00,
2013-05-12 10:42:00,76.0,41.4,29.93,NNE,28,7.0,7.0,29,0.00,,,0.00,793,Wunderground v.1.15,2013-05-12 16:42:00,
2013-05-12 10:50:00,76.8,42.1,29.92,North,360,8.0,8.0,29,0.00,,,0.00,853,Wunderground v.1.15,2013-05-12 16:50:00,
2013-05-12 10:56:00,77.6,41.9,29.91,North,355,8.0,13.0,28,0.00,,,0.00,914,Wunderground v.1.15,2013-05-12 16:56:00,
2013-05-12 11:02:00,78.4,41.6,29.91,North,10,8.0,8.0,27,0.00,,,0.00,610,Wunderground v.1.15,2013-05-12 17:02:00,
2013-05-12 11:08:00,78.6,41.8,29.91,North,350,6.0,12.0,27,0.00,,,0.00,570,Wunderground v.1.15,2013-05-12 17:08:00,
2013-05-12 11:14:00,78.1,42.3,29.91,North,360,7.0,10.0,28,0.00,,,0.00,708,Wunderground v.1.15,2013-05-12 17:14:00,
2013-05-12 11:20:00,78.3,42.5,29.91,East,80,5.0,5.0,28,0.00,,,0.00,735,Wunderground v.1.15,2013-05-12 17:20:00,
2013-05-12 11:26:00,79.1,42.2,29.90,ENE,66,5.0,6.0,27,0.00,,,0.00,853,Wunderground v.1.15,2013-05-12 17:26:00,
2013-05-12 11:32:00,79.7,42.8,29.90,ENE,71,6.0,11.0,27,0.00,,,0.00,788,Wunderground v.1.15,2013-05-12 17:32:00,
2013-05-12 11:38:00,80.2,42.2,29.90,ENE,59,5.0,11.0,26,0.00,,,0.00,731,Wunderground v.1.15,2013-05-12 17:38:00,
2013-05-12 11:44:00,80.7,42.6,29.89,NE,43,5.0,7.0,26,0.00,,,0.00,796,Wunderground v.1.15,2013-05-12 17:44:00,
2013-05-12 11:50:00,80.9,41.8,29.89,NNE,22,5.0,7.0,25,0.00,,,0.00,865,Wunderground v.1.15,2013-05-12 17:50:00,
2013-05-12 11:56:00,81.4,43.2,29.89,NNE,18,6.0,8.0,26,0.00,,,0.00,742,Wunderground v.1.15,2013-05-12 17:56:00,
2013-05-12 12:02:00,81.5,42.3,29.88,NNE,23,6.0,6.0,25,0.00,,,0.00,626,Wunderground v.1.15,2013-05-12 18:02:00,
2013-05-12 12:08:00,81.3,42.1,29.88,NE,40,5.0,7.0,25,0.00,,,0.00,659,Wunderground v.1.15,2013-05-12 18:08:00,
2013-05-12 12:14:00,81.1,41.9,29.88,East,84,6.0,9.0,25,0.00,,,0.00,475,Wunderground v.1.15,2013-05-12 18:14:00,
2013-05-12 12:20:00,80.7,41.6,29.88,NNE,17,5.0,5.0,25,0.00,,,0.00,320,Wunderground v.1.15,2013-05-12 18:20:00,
2013-05-12 12:26:00,79.8,40.8,29.88,NE,40,7.0,11.0,25,0.00,,,0.00,260,Wunderground v.1.15,2013-05-12 18:26:00,
2013-05-12 12:32:00,78.9,42.1,29.88,ENE,57,6.0,7.0,27,0.00,,,0.00,315,Wunderground v.1.15,2013-05-12 18:32:00,
2013-05-12 12:38:00,78.4,41.6,29.88,NNE,15,5.0,7.0,27,0.00,,,0.00,466,Wunderground v.1.15,2013-05-12 18:38:00,
2013-05-12 12:44:00,78.7,41.9,29.88,NNE,27,7.0,10.0,27,0.00,,,0.00,422,Wunderground v.1.15,2013-05-12 18:44:00,
2013-05-12 12:50:00,79.1,42.2,29.87,ESE,102,7.0,8.0,27,0.00,,,0.00,557,Wunderground v.1.15,2013-05-12 18:50:00,
2013-05-12 12:56:00,80.2,42.2,29.87,ESE,105,8.0,12.0,26,0.00,,,0.00,1030,Wunderground v.1.15,2013-05-12 18:56:00,
2013-05-12 13:02:00,81.4,42.2,29.87,ENE,76,9.0,10.0,25,0.00,,,0.00,547,Wunderground v.1.15,2013-05-12 19:02:00,
2013-05-12 13:08:00,82.1,42.8,29.86,East,84,8.0,10.0,25,0.00,,,0.00,1023,Wunderground v.1.15,2013-05-12 19:08:00,
2013-05-12 13:14:00,82.7,41.1,29.86,ESE,102,7.0,8.0,23,0.00,,,0.00,425,Wunderground v.1.15,2013-05-12 19:14:00,
2013-05-12 13:20:00,82.5,42.1,29.85,NNE,17,6.0,9.0,24,0.00,,,0.00,965,Wunderground v.1.15,2013-05-12 19:20:00,
2013-05-12 13:26:00,82.6,41.0,29.85,ENE,65,7.0,9.0,23,0.00,,,0.00,381,Wunderground v.1.15,2013-05-12 19:26:00,
2013-05-12 13:32:00,82.1,41.7,29.85,NNE,30,8.0,9.0,24,0.00,,,0.00,441,Wunderground v.1.15,2013-05-12 19:32:00,
2013-05-12 13:38:00,82.3,41.9,29.85,East,89,7.0,11.0,24,0.00,,,0.00,990,Wunderground v.1.15,2013-05-12 19:38:00,
2013-05-12 13:44:00,82.9,41.3,29.84,East,97,9.0,10.0,23,0.00,,,0.00,691,Wunderground v.1.15,2013-05-12 19:44:00,
2013-05-12 13:50:00,83.0,41.4,29.84,NE,42,8.0,8.0,23,0.00,,,0.00,652,Wunderground v.1.15,2013-05-12 19:50:00,
2013-05-12 13:56:00,82.9,41.3,29.84,East,94,7.0,11.0,23,0.00,,,0.00,550,Wunderground v.1.15,2013-05-12 19:56:00,
2013-05-12 14:02:00,82.8,40.1,29.84,East,85,8.0,8.0,22,0.00,,,0.00,538,Wunderground v.1.15,2013-05-12 20:02:00,
2013-05-12 14:08:00,82.6,38.7,29.84,East,94,9.0,12.0,21,0.00,,,0.00,714,Wunderground v.1.15,2013-05-12 20:08:00,
2013-05-12 14:14:00,82.8,38.9,29.84,ESE,109,9.0,16.0,21,0.00,,,0.00,784,Wunderground v.1.15,2013-05-12 20:14:00,
2013-05-12 14:20:00,82.5,38.6,29.83,SE,134,10.0,10.0,21,0.00,,,0.00,385,Wunderground v.1.15,2013-05-12 20:20:00,
2013-05-12 14:26:00,82.1,39.5,29.82,SSE,164,7.0,30.0,22,0.00,,,0.00,439,Wunderground v.1.15,2013-05-12 20:26:00,
2013-05-12 14:32:00,82.6,41.0,29.83,SE,140,8.0,8.0,23,0.00,,,0.00,796,Wunderground v.1.15,2013-05-12 20:32:00,
2013-05-12 14:38:00,83.3,38.0,29.83,East,99,8.0,9.0,20,0.00,,,0.00,870,Wunderground v.1.15,2013-05-12 20:38:00,
2013-05-12 14:44:00,83.8,38.4,29.83,ESE,120,9.0,10.0,20,0.00,,,0.00,1011,Wunderground v.1.15,2013-05-12 20:44:00,
2013-05-12 14:50:00,84.3,36.2,29.82,ESE,107,8.0,8.0,18,0.00,,,0.00,902,Wunderground v.1.15,2013-05-12 20:50:00,
2013-05-12 14:56:00,85.0,36.7,29.82,SE,129,7.0,9.0,18,0.00,,,0.00,960,Wunderground v.1.15,2013-05-12 20:56:00,
2013-05-12 15:02:00,85.7,37.3,29.82,SE,132,9.0,12.0,18,0.00,,,0.00,1020,Wunderground v.1.15,2013-05-12 21:02:00,
2013-05-12 15:08:00,85.9,37.5,29.82,SE,142,8.0,12.0,18,0.00,,,0.00,991,Wunderground v.1.15,2013-05-12 21:08:00,
2013-05-12 15:14:00,86.2,37.7,29.82,SE,127,8.0,9.0,18,0.00,,,0.00,1000,Wunderground v.1.15,2013-05-12 21:14:00,
2013-05-12 15:20:00,86.5,36.5,29.81,ESE,110,8.0,10.0,17,0.00,,,0.00,905,Wunderground v.1.15,2013-05-12 21:20:00,
2013-05-12 15:26:00,85.9,36.0,29.81,SE,125,9.0,13.0,17,0.00,,,0.00,853,Wunderground v.1.15,2013-05-12 21:26:00,
2013-05-12 15:34:00,85.3,37.0,29.81,ESE,117,10.0,10.0,18,0.00,,,0.00,872,Wunderground v.1.15,2013-05-12 21:34:00,
2013-05-12 15:40:00,85.5,37.1,29.81,ESE,104,8.0,8.0,18,0.00,,,0.00,816,Wunderground v.1.15,2013-05-12 21:40:00,
2013-05-12 15:46:00,85.5,38.5,29.81,SSE,150,9.0,9.0,19,0.00,,,0.00,761,Wunderground v.1.15,2013-05-12 21:46:00,
2013-05-12 15:52:00,85.0,36.7,29.80,NE,53,9.0,9.0,18,0.00,,,0.00,512,Wunderground v.1.15,2013-05-12 21:52:00,
2013-05-12 16:00:00,84.5,36.3,29.80,NE,49,8.0,8.0,18,0.00,,,0.00,837,Wunderground v.1.15,2013-05-12 22:00:00,
2013-05-12 16:06:00,84.9,36.7,29.79,SE,127,9.0,14.0,18,0.00,,,0.00,902,Wunderground v.1.15,2013-05-12 22:06:00,
2013-05-12 16:12:00,84.6,36.4,29.79,East,88,9.0,9.0,18,0.00,,,0.00,380,Wunderground v.1.15,2013-05-12 22:12:00,
2013-05-12 16:18:00,83.8,37.1,29.78,ESE,112,7.0,10.0,19,0.00,,,0.00,563,Wunderground v.1.15,2013-05-12 22:18:00,
2013-05-12 16:24:00,83.4,36.8,29.78,ESE,113,6.0,10.0,19,0.00,,,0.00,427,Wunderground v.1.15,2013-05-12 22:24:00,
2013-05-12 16:30:00,83.7,37.0,29.78,East,93,7.0,7.0,19,0.00,,,0.00,721,Wunderground v.1.15,2013-05-12 22:30:00,
2013-05-12 16:36:00,84.3,38.9,29.78,ESE,113,7.0,10.0,20,0.00,,,0.00,914,Wunderground v.1.15,2013-05-12 22:36:00,
2013-05-12 16:42:00,85.2,38.3,29.78,SE,143,8.0,14.0,19,0.00,,,0.00,786,Wunderground v.1.15,2013-05-12 22:42:00,
2013-05-12 16:48:00,85.4,37.1,29.77,SE,133,7.0,14.0,18,0.00,,,0.00,385,Wunderground v.1.15,2013-05-12 22:48:00,
2013-05-12 16:54:00,85.6,37.2,29.77,ESE,120,6.0,11.0,18,0.00,,,0.00,626,Wunderground v.1.15,2013-05-12 22:54:00,
2013-05-12 17:00:00,85.6,37.2,29.77,SSE,150,9.0,13.0,18,0.00,,,0.00,659,Wunderground v.1.15,2013-05-12 23:00:00,
2013-05-12 17:06:00,85.2,36.9,29.77,ESE,119,10.0,13.0,18,0.00,,,0.00,524,Wunderground v.1.15,2013-05-12 23:06:00,
2013-05-12 17:12:00,84.8,36.6,29.76,SE,134,9.0,10.0,18,0.00,,,0.00,410,Wunderground v.1.15,2013-05-12 23:12:00,
2013-05-12 17:18:00,84.1,34.6,29.77,ESE,112,9.0,14.0,17,0.00,,,0.00,211,Wunderground v.1.15,2013-05-12 23:18:00,
2013-05-12 17:24:00,83.2,35.3,29.76,SE,125,8.0,8.0,18,0.00,,,0.00,269,Wunderground v.1.15,2013-05-12 23:24:00,
2013-05-12 17:30:00,82.7,34.9,29.76,ESE,119,7.0,9.0,18,0.00,,,0.00,295,Wunderground v.1.15,2013-05-12 23:30:00,
2013-05-12 17:36:00,82.3,34.5,29.76,SSE,154,9.0,12.0,18,0.00,,,0.00,311,Wunderground v.1.15,2013-05-12 23:36:00,
2013-05-12 17:42:00,81.8,34.1,29.76,SE,140,11.0,11.0,18,0.00,,,0.00,302,Wunderground v.1.15,2013-05-12 23:42:00,
2013-05-12 17:48:00,81.5,33.9,29.76,SSE,165,10.0,13.0,18,0.00,,,0.00,248,Wunderground v.1.15,2013-05-12 23:48:00,
2013-05-12 17:54:00,81.1,34.9,29.76,SSE,151,10.0,11.0,19,0.00,,,0.00,230,Wunderground v.1.15,2013-05-12 23:54:00,
2013-05-12 18:00:00,80.9,34.8,29.76,ESE,115,9.0,9.0,19,0.00,,,0.00,232,Wunderground v.1.15,2013-05-13 00:00:00,
2013-05-12 18:06:00,80.8,34.7,29.76,ESE,119,6.0,9.0,19,0.00,,,0.00,352,Wunderground v.1.15,2013-05-13 00:06:00,
2013-05-12 18:12:00,81.1,34.9,29.76,ESE,105,6.0,6.0,19,0.00,,,0.00,264,Wunderground v.1.15,2013-05-13 00:12:00,
2013-05-12 18:18:00,81.2,33.6,29.76,SSE,164,8.0,14.0,18,0.00,,,0.00,401,Wunderground v.1.15,2013-05-13 00:18:00,
2013-05-12 18:26:00,81.5,35.2,29.76,South,173,11.0,14.0,19,0.00,,,0.00,529,Wunderground v.1.15,2013-05-13 00:26:00,
2013-05-12 18:32:00,81.7,34.1,29.76,SE,145,11.0,13.0,18,0.00,,,0.00,410,Wunderground v.1.15,2013-05-13 00:32:00,
2013-05-12 18:38:00,81.7,34.1,29.75,SSE,166,11.0,13.0,18,0.00,,,0.00,355,Wunderground v.1.15,2013-05-13 00:38:00,
2013-05-12 18:44:00,81.5,33.9,29.76,South,178,11.0,19.0,18,0.00,,,0.00,332,Wunderground v.1.15,2013-05-13 00:44:00,
2013-05-12 18:50:00,81.1,33.6,29.76,South,173,11.0,11.0,18,0.00,,,0.00,255,Wunderground v.1.15,2013-05-13 00:50:00,
2013-05-12 18:56:00,80.6,34.5,29.76,SSE,161,12.0,14.0,19,0.00,,,0.00,318,Wunderground v.1.15,2013-05-13 00:56:00,
2013-05-12 19:02:00,80.3,34.3,29.76,SSE,160,12.0,12.0,19,0.00,,,0.00,348,Wunderground v.1.15,2013-05-13 01:02:00,
2013-05-12 19:08:00,80.4,34.3,29.76,SSE,157,8.0,12.0,19,0.00,,,0.00,316,Wunderground v.1.15,2013-05-13 01:08:00,
2013-05-12 19:14:00,80.6,35.8,29.76,SSE,155,7.0,10.0,20,0.00,,,0.00,281,Wunderground v.1.15,2013-05-13 01:14:00,
2013-05-12 19:20:00,80.6,35.8,29.75,SSE,149,7.0,7.0,20,0.00,,,0.00,237,Wunderground v.1.15,2013-05-13 01:20:00,
2013-05-12 19:26:00,80.5,34.4,29.75,SSE,158,6.0,9.0,19,0.00,,,0.00,237,Wunderground v.1.15,2013-05-13 01:26:00,
2013-05-12 19:32:00,80.1,34.1,29.75,SSE,151,8.0,12.0,19,0.00,,,0.00,206,Wunderground v.1.15,2013-05-13 01:32:00,
2013-05-12 19:38:00,79.8,35.1,29.75,SE,146,8.0,12.0,20,0.00,,,0.00,167,Wunderground v.1.15,2013-05-13 01:38:00,
2013-05-12 19:44:00,79.5,33.6,29.75,SSE,165,6.0,7.0,19,0.00,,,0.00,149,Wunderground v.1.15,2013-05-13 01:44:00,
2013-05-12 19:50:00,79.0,33.2,29.75,SSE,167,7.0,9.0,19,0.00,,,0.00,120,Wunderground v.1.15,2013-05-13 01:50:00,
2013-05-12 19:56:00,78.4,32.7,29.75,SSE,167,7.0,9.0,19,0.00,,,0.00,76,Wunderground v.1.15,2013-05-13 01:56:00,
2013-05-12 20:02:00,77.9,33.6,29.75,SSE,159,5.0,6.0,20,0.00,,,0.00,49,Wunderground v.1.15,2013-05-13 02:02:00,
2013-05-12 20:08:00,77.2,33.0,29.75,SSE,163,4.0,6.0,20,0.00,,,0.00,40,Wunderground v.1.15,2013-05-13 02:08:00,
2013-05-12 20:14:00,76.4,33.6,29.75,SSE,165,4.0,6.0,21,0.00,,,0.00,33,Wunderground v.1.15,2013-05-13 02:14:00,
2013-05-12 20:22:00,75.3,32.6,29.75,South,171,5.0,6.0,21,0.00,,,0.00,26,Wunderground v.1.15,2013-05-13 02:22:00,
2013-05-12 20:28:00,74.7,33.3,29.75,South,180,6.0,9.0,22,0.00,,,0.00,21,Wunderground v.1.15,2013-05-13 02:28:00,
2013-05-12 20:34:00,74.2,32.9,29.76,South,169,8.0,10.0,22,0.00,,,0.00,18,Wunderground v.1.15,2013-05-13 02:34:00,
2013-05-12 20:40:00,74.0,34.9,29.76,SSE,167,9.0,9.0,24,0.00,,,0.00,12,Wunderground v.1.15,2013-05-13 02:40:00,
2013-05-12 20:48:00,73.7,35.7,29.76,South,176,9.0,10.0,25,0.00,,,0.00,5,Wunderground v.1.15,2013-05-13 02:48:00,
2013-05-12 20:54:00,73.3,36.3,29.76,South,178,8.0,9.0,26,0.00,,,0.00,0,Wunderground v.1.15,2013-05-13 02:54:00,
2013-05-12 21:00:00,72.9,36.0,29.76,South,178,6.0,6.0,26,0.00,,,0.00,0,Wunderground v.1.15,2013-05-13 03:00:00,
2013-05-12 21:08:00,72.2,35.4,29.77,South,188,5.0,6.0,26,0.00,,,0.00,0,Wunderground v.1.15,2013-05-13 03:08:00,
2013-05-12 21:16:00,71.3,36.5,29.77,South,187,4.0,5.0,28,0.00,,,0.00,0,Wunderground v.1.15,2013-05-13 03:16:00,
2013-05-12 21:22:00,70.5,37.6,29.77,South,188,5.0,8.0,30,0.00,,,0.00,0,Wunderground v.1.15,2013-05-13 03:22:00,
2013-05-12 21:30:00,69.9,38.7,29.77,South,185,5.0,6.0,32,0.00,,,0.00,0,Wunderground v.1.15,2013-05-13 03:30:00,
2013-05-12 21:36:00,69.6,38.4,29.78,South,189,4.0,6.0,32,0.00,,,0.00,0,Wunderground v.1.15,2013-05-13 03:36:00,
2013-05-12 21:42:00,69.3,38.2,29.78,South,189,1.0,2.0,32,0.00,,,0.00,0,Wunderground v.1.15,2013-05-13 03:42:00,
2013-05-12 21:48:00,68.4,36.6,29.78,South,189,0.0,2.0,31,0.00,,,0.00,0,Wunderground v.1.15,2013-05-13 03:48:00,
2013-05-12 21:54:00,67.2,37.1,29.79,West,262,0.0,3.0,33,0.00,,,0.00,0,Wunderground v.1.15,2013-05-13 03:54:00,
2013-05-12 22:00:00,66.2,37.7,29.79,NW,323,1.0,2.0,35,0.00,,,0.00,0,Wunderground v.1.15,2013-05-13 04:00:00,
2013-05-12 22:02:00,66.1,38.4,29.79,NW,323,2.0,2.0,36,0.00,,,0.00,0,Wunderground v.1.15,2013-05-13 04:02:00,
2013-05-12 22:04:00,65.9,38.9,29.79,NW,323,2.0,2.0,37,0.00,,,0.00,0,Wunderground v.1.15,2013-05-13 04:04:00,
2013-05-12 22:06:00,65.9,38.9,29.79,NW,323,1.0,2.0,37,0.00,,,0.00,0,Wunderground v.1.15,2013-05-13 04:06:00,
2013-05-12 22:08:00,65.8,38.8,29.79,NW,322,2.0,2.0,37,0.00,,,0.00,0,Wunderground v.1.15,2013-05-13 04:08:00,
2013-05-12 22:14:00,65.9,38.9,29.80,NW,322,2.0,3.0,37,0.00,,,0.00,0,Wunderground v.1.15,2013-05-13 04:14:00,
2013-05-12 22:20:00,65.7,39.4,29.80,NNW,330,2.0,2.0,38,0.00,,,0.00,0,Wunderground v.1.15,2013-05-13 04:20:00,
2013-05-12 22:26:00,65.6,40.0,29.80,ENE,70,1.0,3.0,39,0.00,,,0.00,0,Wunderground v.1.15,2013-05-13 04:26:00,
2013-05-12 22:32:00,65.8,40.8,29.80,ENE,71,1.0,1.0,40,0.00,,,0.00,0,Wunderground v.1.15,2013-05-13 04:32:00,
2013-05-12 22:38:00,65.9,40.9,29.80,ENE,73,1.0,2.0,40,0.00,,,0.00,0,Wunderground v.1.15,2013-05-13 04:38:00,
2013-05-12 22:44:00,65.9,40.9,29.80,South,169,1.0,1.0,40,0.00,,,0.00,0,Wunderground v.1.15,2013-05-13 04:44:00,
2013-05-12 22:50:00,65.9,40.9,29.79,South,184,1.0,1.0,40,0.00,,,0.00,0,Wunderground v.1.15,2013-05-13 04:50:00,
2013-05-12 22:56:00,65.8,41.4,29.80,SSE,150,2.0,6.0,41,0.00,,,0.00,0,Wunderground v.1.15,2013-05-13 04:56:00,
2013-05-12 23:02:00,65.8,42.1,29.80,SE,146,2.0,2.0,42,0.00,,,0.00,0,Wunderground v.1.15,2013-05-13 05:02:00,
2013-05-12 23:08:00,65.9,40.9,29.79,SE,146,0.0,2.0,40,0.00,,,0.00,0,Wunderground v.1.15,2013-05-13 05:08:00,
2013-05-12 23:14:00,65.7,40.7,29.79,SE,146,0.0,0.0,40,0.00,,,0.00,0,Wunderground v.1.15,2013-05-13 05:14:00,
2013-05-12 23:20:00,65.4,41.1,29.78,SE,146,0.0,0.0,41,0.00,,,0.00,0,Wunderground v.1.15,2013-05-13 05:20:00,
2013-05-12 23:26:00,65.1,40.8,29.78,SE,146,0.0,0.0,41,0.00,,,0.00,0,Wunderground v.1.15,2013-05-13 05:26:00,
2013-05-12 23:36:00,63.2,37.8,29.79,ENE,61,3.0,4.0,39,0.00,,,0.00,0,Wunderground v.1.15,2013-05-13 05:36:00,
2013-05-12 23:42:00,62.0,37.4,29.80,ENE,63,2.0,3.0,40,0.00,,,0.00,0,Wunderground v.1.15,2013-05-13 05:42:00,
2013-05-12 23:48:00,60.8,37.5,29.80,ENE,61,2.0,3.0,42,0.00,,,0.00,0,Wunderground v.1.15,2013-05-13 05:48:00,
2013-05-12 23:54:00,59.9,37.3,29.80,ENE,63,3.0,3.0,43,0.00,,,0.00,0,Wunderground v.1.15,2013-05-13 05:54:00,